Location: Unspecified
(0.0000°N, 0.0000°E)
Time: 22:23:54
(UTC+00:00)

Hubble Space Telescope - Pass Details

Date: 14 July 2019
Orbit: 536 x 540 km, 28.5° (Epoch: 22 July)

Event Time Altitude Azimuth Distance (km) Brightness Sun altitude
Rises 19:39:35 0° 289° (WNW) 2,671 5.9 -21.7°
Reaches altitude 10° 19:41:55 10° 282° (WNW) 1,783 4.5 -22.2°
Maximum altitude 19:45:51 43° 210° (SSW) 760 1.5 -23.1°
Enters shadow 19:45:55 43° 207° (SSW) 760 1.5 -23.1°
